| time (UTC) | temp F | wind direction | speed MPH | gust MPH | rain 1hr in | rain 24hr in | rain mn in | humidity % | barometer mb |
| 20260503005535 | 140 | 218 | 0.0 | 0.0 | 0.00 | 0.00 | 0.00 | 1019.0 | |
| 20260503005032 | 140 | 219 | 0.0 | 0.0 | 0.00 | 0.00 | 0.00 | 1019.0 | |
| 20260503004528 | 140 | 223 | 0.0 | 0.0 | 0.00 | 0.00 | 0.00 | 1018.7 | |
| 20260503004026 | 140 | 231 | 0.0 | 0.0 | 0.00 | 0.00 | 0.00 | 1019.0 | |
| 20260503003523 | 140 | 235 | 0.0 | 0.0 | 0.00 | 0.00 | 0.00 | 1018.7 | |
| 20260503003020 | 140 | 241 | 0.0 | 0.0 | 0.00 | 0.00 | 0.00 | 1018.8 | |
| 20260503002517 | 140 | 228 | 0.0 | 0.0 | 0.00 | 0.00 | 0.00 | 1018.9 | |
| 20260503002014 | 140 | 234 | 0.0 | 0.0 | 0.00 | 0.00 | 0.00 | 1018.7 | |
| 20260503001510 | 140 | 225 | 0.0 | 0.0 | 0.00 | 0.00 | 0.00 | 1018.9 | |
| 20260503001008 | 140 | 231 | 0.0 | 0.0 | 0.00 | 0.00 | 0.00 | 1018.8 | |
| 20260503000505 | 140 | 265 | 0.0 | 0.0 | 0.00 | 0.00 | 0.00 | 1018.6 | |
| 20260503000002 | 140 | 255 | 0.0 | 0.0 | 0.00 | 0.00 | 0.00 | 1018.9 | |
| 20260502235458 | 140 | 243 | 0.0 | 0.0 | 0.00 | 0.00 | 0.00 | 1018.6 | |
| 20260502234956 | 140 | 216 | 0.0 | 0.0 | 0.00 | 0.00 | 0.00 | 1018.8 | |
| 20260502234452 | 140 | 241 | 0.0 | 0.0 | 0.00 | 0.00 | 0.00 | 1018.9 | |
| 20260502233950 | 140 | 244 | 0.0 | 0.0 | 0.00 | 0.00 | 0.00 | 1018.9 | |
| 20260502233444 | 140 | 215 | 0.0 | 0.0 | 0.00 | 0.00 | 0.00 | 1018.9 | |
| 20260502232941 | 140 | 220 | 0.0 | 0.0 | 0.00 | 0.00 | 0.00 | 1019.0 | |
| 20260502232438 | 140 | 249 | 3.0 | 5.0 | 0.00 | 0.00 | 0.00 | 1018.8 | |
| 20260502231935 | 140 | 311 | 3.0 | 5.0 | 0.00 | 0.00 | 0.00 | 1018.8 | |
| 20260502231432 | 140 | 231 | 3.0 | 3.0 | 0.00 | 0.00 | 0.00 | 1018.8 | |
| 20260502230930 | 140 | 241 | 0.0 | 0.0 | 0.00 | 0.00 | 0.00 | 1018.9 | |
| 20260502230428 | 140 | 246 | 2.0 | 3.0 | 0.00 | 0.00 | 0.00 | 1019.1 | |
| 20260502225926 | 140 | 290 | 1.0 | 1.0 | 0.00 | 0.00 | 0.00 | 1018.9 | |
| 20260502225422 | 140 | 316 | 3.0 | 5.0 | 0.00 | 0.00 | 0.00 | 1019.1 | |
| 20260502224919 | 140 | 43 | 2.0 | 2.0 | 0.00 | 0.00 | 0.00 | 1018.8 | |
| 20260502224414 | 140 | 277 | 3.0 | 5.0 | 0.00 | 0.00 | 0.00 | 1018.9 | |
| 20260502223912 | 140 | 262 | 5.0 | 6.0 | 0.00 | 0.00 | 0.00 | 1018.9 | |
| 20260502223410 | 140 | 216 | 5.0 | 6.0 | 0.00 | 0.00 | 0.00 | 1019.1 | |
| 20260502222908 | 140 | 228 | 4.0 | 6.0 | 0.00 | 0.00 | 0.00 | 1019.1 | |
| 20260502222405 | 140 | 223 | 4.0 | 6.0 | 0.00 | 0.00 | 0.00 | 1019.1 | |
| 20260502221900 | 140 | 222 | 3.0 | 5.0 | 0.00 | 0.00 | 0.00 | 1019.0 | |
| 20260502221357 | 140 | 221 | 5.0 | 5.0 | 0.00 | 0.00 | 0.00 | 1019.0 | |
| 20260502220854 | 140 | 283 | 2.0 | 2.0 | 0.00 | 0.00 | 0.00 | 1019.2 | |
| 20260502220350 | 140 | 247 | 7.0 | 8.0 | 0.00 | 0.00 | 0.00 | 1019.2 | |
| 20260502215847 | 140 | 269 | 6.0 | 7.0 | 0.00 | 0.00 | 0.00 | 1019.0 | |
| 20260502215344 | 140 | 228 | 7.0 | 8.0 | 0.00 | 0.00 | 0.00 | 1019.5 | |
| 20260502214840 | 140 | 227 | 0.0 | 0.0 | 0.00 | 0.00 | 0.00 | 1019.5 | |
| 20260502214337 | 140 | 312 | 3.0 | 5.0 | 0.00 | 0.00 | 0.00 | 1019.4 | |
| 20260502213835 | 140 | 320 | 4.0 | 6.0 | 0.00 | 0.00 | 0.00 | 1019.4 | |
| 20260502213332 | 140 | 288 | 3.0 | 3.0 | 0.00 | 0.00 | 0.00 | 1019.6 | |
| 20260502212831 | 140 | 301 | 7.0 | 9.0 | 0.00 | 0.00 | 0.00 | 1019.6 | |
| 20260502212329 | 140 | 41 | 3.0 | 5.0 | 0.00 | 0.00 | 0.00 | 1019.5 | |
| 20260502211826 | 140 | 242 | 0.0 | 1.0 | 0.00 | 0.00 | 0.00 | 1019.7 | |
| 20260502211321 | 140 | 251 | 1.0 | 1.0 | 0.00 | 0.00 | 0.00 | 1019.8 | |
| 20260502210819 | 140 | 263 | 0.0 | 0.0 | 0.00 | 0.00 | 0.00 | 1019.9 | |
| 20260502210316 | 140 | 15 | 0.0 | 0.0 | 0.00 | 0.00 | 0.00 | 1020.0 | |
| 20260502205813 | 140 | 205 | 0.0 | 0.0 | 0.00 | 0.00 | 0.00 | 1020.2 | |
| 20260502205309 | 140 | 231 | 0.0 | 0.0 | 0.00 | 0.00 | 0.00 | 1020.2 | |
| 20260502204806 | 140 | 319 | 0.0 | 2.0 | 0.00 | 0.00 | 0.00 | 1020.4 | |
| 20260502204303 | 140 | 20 | 2.0 | 6.0 | 0.00 | 0.00 | 0.00 | 1020.3 | |
| 20260502203801 | 140 | 262 | 0.0 | 0.0 | 0.00 | 0.00 | 0.00 | 1020.4 | |
| 20260502203258 | 140 | 8 | 3.0 | 3.0 | 0.00 | 0.00 | 0.00 | 1020.4 | |
| 20260502202758 | 140 | 233 | 0.0 | 0.0 | 0.00 | 0.00 | 0.00 | 1020.3 | |
| 20260502202256 | 140 | 222 | 0.0 | 0.0 | 0.00 | 0.00 | 0.00 | 1020.3 | |
| 20260502201754 | 140 | 270 | 5.0 | 6.0 | 0.00 | 0.00 | 0.00 | 1020.5 | |
| 20260502201255 | 140 | 234 | 0.0 | 0.0 | 0.00 | 0.00 | 0.00 | 1020.6 | |
| 20260502200751 | 140 | 228 | 0.0 | 0.0 | 0.00 | 0.00 | 0.00 | 1020.6 | |
| 20260502200247 | 140 | 215 | 0.0 | 3.0 | 0.00 | 0.00 | 0.00 | 1020.7 | |
| 20260502195746 | 140 | 259 | 0.0 | 0.0 | 0.00 | 0.00 | 0.00 | 1020.5 | |
| 20260502195242 | 140 | 286 | 0.0 | 0.0 | 0.00 | 0.00 | 0.00 | 1020.5 | |
| 20260502194738 | 140 | 131 | 0.0 | 0.0 | 0.00 | 0.00 | 0.00 | 1020.7 | |
| 20260502194236 | 140 | 257 | 0.0 | 0.0 | 0.00 | 0.00 | 0.00 | 1020.8 | |
| 20260502193731 | 140 | 238 | 0.0 | 0.0 | 0.00 | 0.00 | 0.00 | 1020.7 | |
| 20260502193229 | 140 | 299 | 1.0 | 3.0 | 0.00 | 0.00 | 0.00 | 1020.9 | |
| 20260502192729 | 140 | 283 | 0.0 | 0.0 | 0.00 | 0.00 | 0.00 | 1020.9 | |
| 20260502192227 | 140 | 53 | 0.0 | 0.0 | 0.00 | 0.00 | 0.00 | 1020.9 | |
| 20260502191723 | 140 | 85 | 2.0 | 3.0 | 0.00 | 0.00 | 0.00 | 1020.9 | |
| 20260502191221 | 140 | 236 | 0.0 | 0.0 | 0.00 | 0.00 | 0.00 | 1020.8 | |
| 20260502190718 | 140 | 283 | 0.0 | 0.0 | 0.00 | 0.00 | 0.00 | 1021.2 | |
| 20260502190216 | 140 | 342 | 0.0 | 1.0 | 0.00 | 0.00 | 0.00 | 1021.2 | |
| 20260502185715 | 140 | 356 | 2.0 | 8.0 | 0.00 | 0.00 | 0.00 | 1021.2 | |
| 20260502185212 | 140 | 231 | 5.0 | 6.0 | 0.00 | 0.00 | 0.00 | 1021.0 | |
| 20260502184708 | 140 | 219 | 0.0 | 0.0 | 0.00 | 0.00 | 0.00 | 1021.0 | |
| 20260502184204 | 140 | 3 | 0.0 | 0.0 | 0.00 | 0.00 | 0.00 | 1021.3 | |
| 20260502183701 | 140 | 306 | 2.0 | 6.0 | 0.00 | 0.00 | 0.00 | 1021.6 | |
| 20260502183157 | 140 | 0 | 9.0 | 10.0 | 0.00 | 0.00 | 0.00 | 1021.5 | |
| 20260502182652 | 140 | 16 | 2.0 | 6.0 | 0.00 | 0.00 | 0.00 | 1021.6 | |
| 20260502182148 | 140 | 316 | 0.0 | 0.0 | 0.00 | 0.00 | 0.00 | 1021.7 | |
| 20260502181646 | 140 | 37 | 7.0 | 10.0 | 0.00 | 0.00 | 0.00 | 1021.9 | |
| 20260502181144 | 140 | 9 | 0.0 | 0.0 | 0.00 | 0.00 | 0.00 | 1021.8 | |
| 20260502180641 | 140 | 59 | 3.0 | 7.0 | 0.00 | 0.00 | 0.00 | 1022.0 | |
| 20260502180138 | 140 | 10 | 4.0 | 8.0 | 0.00 | 0.00 | 0.00 | 1022.0 | |
| 20260502164049 | 140 | 271 | 0.0 | 0.0 | 0.00 | 0.00 | 0.00 | 1022.8 | |
| 20260502163545 | 140 | 247 | 0.0 | 0.0 | 0.00 | 0.00 | 0.00 | 1022.6 | |
| 20260502163042 | 140 | 262 | 0.0 | 0.0 | 0.00 | 0.00 | 0.00 | 1022.8 | |
| 20260502162539 | 140 | 273 | 0.0 | 1.0 | 0.00 | 0.00 | 0.00 | 1022.9 | |
| 20260502162036 | 140 | 247 | 0.0 | 0.0 | 0.00 | 0.00 | 0.00 | 1022.8 | |
| 20260502161533 | 140 | 284 | 0.0 | 0.0 | 0.00 | 0.00 | 0.00 | 1022.6 | |
| 20260502161031 | 140 | 252 | 1.0 | 2.0 | 0.00 | 0.00 | 0.00 | 1022.8 | |
| 20260502160528 | 140 | 294 | 0.0 | 2.0 | 0.00 | 0.00 | 0.00 | 1022.6 | |
| 20260502151924 | 140 | 289 | 3.0 | 5.0 | 0.00 | 0.00 | 0.00 | 1022.7 | |
| 20260502151420 | 140 | 255 | 7.0 | 8.0 | 0.00 | 0.00 | 0.00 | 1022.8 | |
| 20260502150918 | 140 | 270 | 5.0 | 8.0 | 0.00 | 0.00 | 0.00 | 1022.7 | |
| 20260502150414 | 140 | 311 | 4.0 | 6.0 | 0.00 | 0.00 | 0.00 | 1022.6 | |
| 20260502130301 | 140 | 263 | 6.0 | 8.0 | 0.00 | 0.00 | 0.00 | 1022.2 | |
| 20260502123746 | 140 | 283 | 2.0 | 3.0 | 0.00 | 0.00 | 0.00 | 1022.2 | |
| 20260502123243 | 140 | 291 | 1.0 | 1.0 | 0.00 | 0.00 | 0.00 | 1022.2 | |
| 20260502122739 | 140 | 316 | 3.0 | 5.0 | 0.00 | 0.00 | 0.00 | 1022.3 | |
| 20260502122235 | 140 | 282 | 1.0 | 2.0 | 0.00 | 0.00 | 0.00 | 1021.9 | |
| 20260502121734 | 140 | 285 | 2.0 | 3.0 | 0.00 | 0.00 | 0.00 | 1021.9 | |
| 20260502121232 | 140 | 296 | 1.0 | 3.0 | 0.00 | 0.00 | 0.00 | 1021.8 | |
| 20260502120728 | 140 | 287 | 2.0 | 2.0 | 0.00 | 0.00 | 0.00 | 1021.7 | |
| 20260502120225 | 140 | 281 | 3.0 | 3.0 | 0.00 | 0.00 | 0.00 | 1021.8 | |
| 20260502115722 | 140 | 281 | 3.0 | 3.0 | 0.00 | 0.00 | 0.00 | 1021.6 | |
| 20260502115219 | 140 | 262 | 3.0 | 3.0 | 0.00 | 0.00 | 0.00 | 1021.8 | |
| 20260502114715 | 140 | 272 | 4.0 | 5.0 | 0.00 | 0.00 | 0.00 | 1021.6 | |
| 20260502114213 | 140 | 265 | 4.0 | 6.0 | 0.00 | 0.00 | 0.00 | 1021.4 | |
| 20260502113709 | 140 | 282 | 3.0 | 5.0 | 0.00 | 0.00 | 0.00 | 1021.4 | |
| 20260502113207 | 140 | 278 | 3.0 | 3.0 | 0.00 | 0.00 | 0.00 | 1020.9 | |
| 20260502112705 | 140 | 299 | 2.0 | 2.0 | 0.00 | 0.00 | 0.00 | 1021.0 | |
| 20260502112203 | 140 | 309 | 2.0 | 3.0 | 0.00 | 0.00 | 0.00 | 1020.8 | |
| 20260502111659 | 140 | 313 | 3.0 | 5.0 | 0.00 | 0.00 | 0.00 | 1020.8 | |
| 20260502111157 | 140 | 311 | 3.0 | 3.0 | 0.00 | 0.00 | 0.00 | 1020.8 | |
| 20260502110655 | 140 | 291 | 5.0 | 7.0 | 0.00 | 0.00 | 0.00 | 1020.7 | |
| 20260502110151 | 140 | 302 | 3.0 | 5.0 | 0.00 | 0.00 | 0.00 | 1020.9 | |
| 20260502105649 | 140 | 303 | 2.0 | 5.0 | 0.00 | 0.00 | 0.00 | 1020.7 | |
| 20260502105146 | 140 | 295 | 3.0 | 3.0 | 0.00 | 0.00 | 0.00 | 1020.3 | |
| 20260502104643 | 140 | 305 | 3.0 | 5.0 | 0.00 | 0.00 | 0.00 | 1020.5 | |
| 20260502104140 | 140 | 295 | 4.0 | 6.0 | 0.00 | 0.00 | 0.00 | 1020.3 | |
| 20260502103638 | 140 | 303 | 4.0 | 6.0 | 0.00 | 0.00 | 0.00 | 1020.3 | |
| 20260502103136 | 140 | 301 | 3.0 | 5.0 | 0.00 | 0.00 | 0.00 | 1020.1 | |
| 20260502102632 | 140 | 321 | 3.0 | 3.0 | 0.00 | 0.00 | 0.00 | 1020.1 | |
| 20260502102129 | 140 | 315 | 2.0 | 2.0 | 0.00 | 0.00 | 0.00 | 1020.3 | |
| 20260502101627 | 140 | 316 | 2.0 | 2.0 | 0.00 | 0.00 | 0.00 | 1020.2 | |
| 20260502101125 | 140 | 314 | 3.0 | 3.0 | 0.00 | 0.00 | 0.00 | 1020.3 | |
| 20260502100624 | 140 | 294 | 2.0 | 3.0 | 0.00 | 0.00 | 0.00 | 1020.1 | |
| 20260502100122 | 140 | 319 | 2.0 | 3.0 | 0.00 | 0.00 | 0.00 | 1020.4 | |
| 20260502091055 | 140 | 289 | 0.0 | 0.0 | 0.00 | 0.00 | 0.00 | 1020.0 | |
| 20260502090552 | 140 | 295 | 1.0 | 2.0 | 0.00 | 0.00 | 0.00 | 1020.1 | |
| 20260502071446 | 140 | 271 | 0.0 | 0.0 | 0.00 | 0.00 | 0.00 | 1020.1 | |
| 20260502070945 | 140 | 306 | 0.0 | 0.0 | 0.00 | 0.00 | 0.00 | 1020.2 | |
| 20260502070443 | 140 | 251 | 0.0 | 0.0 | 0.00 | 0.00 | 0.00 | 1020.0 | |
| 20260502065941 | 140 | 276 | 0.0 | 0.0 | 0.00 | 0.00 | 0.00 | 1020.2 | |
| 20260502065439 | 140 | 292 | 0.0 | 0.0 | 0.00 | 0.00 | 0.00 | 1020.2 | |
| 20260502064936 | 140 | 67 | 0.0 | 0.0 | 0.00 | 0.00 | 0.00 | 1020.3 | |
| 20260502064434 | 140 | 272 | 0.0 | 0.0 | 0.00 | 0.00 | 0.00 | 1020.2 | |
| 20260502063931 | 140 | 255 | 0.0 | 0.0 | 0.00 | 0.00 | 0.00 | 1020.1 | |
| 20260502063429 | 140 | 285 | 0.0 | 0.0 | 0.00 | 0.00 | 0.00 | 1020.2 | |
| 20260502062927 | 140 | 262 | 0.0 | 0.0 | 0.00 | 0.00 | 0.00 | 1020.2 | |
| 20260502062423 | 140 | 266 | 0.0 | 0.0 | 0.00 | 0.00 | 0.00 | 1020.2 | |
| 20260502061922 | 140 | 267 | 0.0 | 0.0 | 0.00 | 0.00 | 0.00 | 1019.9 | |
| 20260502061420 | 140 | 268 | 0.0 | 0.0 | 0.00 | 0.00 | 0.00 | 1019.8 | |
| 20260502060915 | 140 | 284 | 0.0 | 0.0 | 0.00 | 0.00 | 0.00 | 1020.0 | |
| 20260502060410 | 140 | 208 | 0.0 | 0.0 | 0.00 | 0.00 | 0.00 | 1020.0 | |
| 20260502055908 | 140 | 207 | 0.0 | 0.0 | 0.00 | 0.00 | 0.00 | 1019.8 | |
| 20260502055405 | 140 | 217 | 0.0 | 0.0 | 0.00 | 0.00 | 0.00 | 1020.1 | |
| 20260502054900 | 140 | 217 | 0.0 | 0.0 | 0.00 | 0.00 | 0.00 | 1020.1 | |
| 20260502054357 | 140 | 216 | 0.0 | 0.0 | 0.00 | 0.00 | 0.00 | 1020.1 | |
| 20260502053854 | 140 | 216 | 0.0 | 0.0 | 0.00 | 0.00 | 0.00 | 1020.1 | |
| 20260502053351 | 140 | 216 | 0.0 | 0.0 | 0.00 | 0.00 | 0.00 | 1020.1 | |
| 20260502052849 | 140 | 216 | 0.0 | 0.0 | 0.00 | 0.00 | 0.00 | 1020.4 | |
| 20260502052347 | 140 | 216 | 0.0 | 0.0 | 0.00 | 0.00 | 0.00 | 1020.4 | |
| 20260502051844 | 140 | 215 | 0.0 | 0.0 | 0.00 | 0.00 | 0.00 | 1020.3 | |
| 20260502051343 | 140 | 214 | 0.0 | 0.0 | 0.00 | 0.00 | 0.00 | 1020.1 | |
| 20260502050839 | 140 | 214 | 0.0 | 0.0 | 0.00 | 0.00 | 0.00 | 1020.3 | |
| 20260502050335 | 140 | 214 | 0.0 | 0.0 | 0.00 | 0.00 | 0.00 | 1020.3 | |
| 20260502045832 | 140 | 230 | 0.0 | 0.0 | 0.00 | 0.00 | 0.00 | 1020.2 | |
| 20260502045329 | 140 | 221 | 0.0 | 0.0 | 0.00 | 0.00 | 0.00 | 1020.5 | |
| 20260502044827 | 140 | 220 | 0.0 | 0.0 | 0.00 | 0.00 | 0.00 | 1020.4 | |
| 20260502044322 | 140 | 223 | 0.0 | 0.0 | 0.00 | 0.00 | 0.00 | 1020.1 | |
| 20260502043820 | 140 | 254 | 0.0 | 0.0 | 0.00 | 0.00 | 0.00 | 1020.1 | |
| 20260502043317 | 140 | 250 | 0.0 | 0.0 | 0.00 | 0.00 | 0.00 | 1020.1 | |
| 20260502042817 | 140 | 238 | 0.0 | 0.0 | 0.00 | 0.00 | 0.00 | 1019.8 | |
| 20260502042314 | 140 | 235 | 0.0 | 0.0 | 0.00 | 0.00 | 0.00 | 1019.8 | |
| 20260502041812 | 140 | 235 | 0.0 | 0.0 | 0.00 | 0.00 | 0.00 | 1020.2 | |
| 20260502041309 | 140 | 235 | 0.0 | 0.0 | 0.00 | 0.00 | 0.00 | 1019.9 | |
| 20260502040806 | 140 | 235 | 0.0 | 0.0 | 0.00 | 0.00 | 0.00 | 1019.8 | |
| 20260502040303 | 140 | 236 | 0.0 | 0.0 | 0.00 | 0.00 | 0.00 | 1020.1 | |
| 20260502035759 | 140 | 236 | 0.0 | 0.0 | 0.00 | 0.05 | 0.05 | 1019.9 | |
| 20260502035255 | 140 | 235 | 0.0 | 0.0 | 0.00 | 0.05 | 0.05 | 1019.9 | |
| 20260502034753 | 140 | 231 | 0.0 | 0.0 | 0.00 | 0.05 | 0.05 | 1019.8 | |
| 20260502034252 | 140 | 228 | 0.0 | 0.0 | 0.00 | 0.05 | 0.05 | 1019.5 | |
| 20260502033749 | 140 | 219 | 0.0 | 0.0 | 0.00 | 0.05 | 0.05 | 1019.5 | |
| 20260502033246 | 140 | 218 | 0.0 | 0.0 | 0.00 | 0.05 | 0.05 | 1019.7 | |
| 20260502032743 | 140 | 208 | 0.0 | 0.0 | 0.00 | 0.05 | 0.05 | 1019.4 | |
| 20260502032239 | 140 | 215 | 0.0 | 0.0 | 0.00 | 0.05 | 0.05 | 1019.5 | |
| 20260502031738 | 140 | 219 | 0.0 | 0.0 | 0.00 | 0.05 | 0.05 | 1019.4 | |
| 20260502031235 | 140 | 220 | 0.0 | 0.0 | 0.00 | 0.05 | 0.05 | 1019.5 | |
| 20260502030733 | 140 | 220 | 0.0 | 0.0 | 0.00 | 0.05 | 0.05 | 1019.4 | |
| 20260502030231 | 140 | 208 | 0.0 | 0.0 | 0.00 | 0.05 | 0.05 | 1019.3 | |
| 20260502025728 | 140 | 208 | 0.0 | 0.0 | 0.00 | 0.05 | 0.05 | 1019.2 | |
| 20260502025226 | 140 | 223 | 0.0 | 0.0 | 0.00 | 0.05 | 0.05 | 1019.1 | |
| 20260502024723 | 140 | 233 | 0.0 | 0.0 | 0.00 | 0.05 | 0.05 | 1019.0 | |
| 20260502024221 | 140 | 209 | 0.0 | 0.0 | 0.00 | 0.05 | 0.05 | 1018.9 | |
| 20260502023719 | 140 | 202 | 0.0 | 0.0 | 0.00 | 0.05 | 0.05 | 1019.0 | |
| 20260502023216 | 140 | 191 | 0.0 | 0.0 | 0.00 | 0.05 | 0.05 | 1019.0 | |
| 20260502022714 | 140 | 244 | 0.0 | 0.0 | 0.00 | 0.05 | 0.05 | 1019.0 | |
| 20260502022210 | 140 | 245 | 0.0 | 0.0 | 0.00 | 0.05 | 0.05 | 1018.6 | |
| 20260502021707 | 140 | 236 | 0.0 | 0.0 | 0.00 | 0.05 | 0.05 | 1018.9 | |
| 20260502021205 | 140 | 240 | 0.0 | 0.0 | 0.00 | 0.05 | 0.05 | 1018.6 | |
| 20260502020701 | 140 | 257 | 0.0 | 0.0 | 0.00 | 0.05 | 0.05 | 1018.8 | |
| 20260502020158 | 140 | 256 | 0.0 | 0.0 | 0.00 | 0.05 | 0.05 | 1018.6 | |
| 20260502015656 | 140 | 257 | 0.0 | 0.0 | 0.00 | 0.05 | 0.05 | 1018.5 | |
| 20260502015152 | 140 | 254 | 0.0 | 0.0 | 0.00 | 0.05 | 0.05 | 1018.2 | |
| 20260502014650 | 140 | 262 | 0.0 | 0.0 | 0.00 | 0.05 | 0.05 | 1018.4 | |
| 20260502014147 | 140 | 256 | 0.0 | 0.0 | 0.00 | 0.05 | 0.05 | 1018.5 | |
| 20260502013643 | 140 | 257 | 0.0 | 0.0 | 0.00 | 0.05 | 0.05 | 1018.0 | |
| 20260502013138 | 140 | 263 | 0.0 | 0.0 | 0.00 | 0.05 | 0.05 | 1018.2 | |
| 20260502012636 | 140 | 264 | 0.0 | 0.0 | 0.00 | 0.05 | 0.05 | 1018.2 | |
| 20260502012134 | 140 | 264 | 0.0 | 0.0 | 0.00 | 0.05 | 0.05 | 1018.0 | |
| 20260502011630 | 140 | 275 | 0.0 | 0.0 | 0.00 | 0.05 | 0.05 | 1017.9 | |
| 20260502011126 | 140 | 271 | 0.0 | 0.0 | 0.00 | 0.05 | 0.05 | 1017.8 | |
| 20260502010624 | 140 | 283 | 0.0 | 0.0 | 0.00 | 0.05 | 0.05 | 1017.6 | |
| 20260502010120 | 140 | 285 | 0.0 | 0.0 | 0.00 | 0.05 | 0.05 | 1017.4 |